Flag for Canada Weather past 2 weeks in Annapolis County, Nova Scotia, Canada

Now
50 °F

Cool.


Feels Like: 45 °F
Forecast: N/A
Wind: 14 mph from Northeast

Location: Kejimkujik 1

Current Time: Oct 22, 2014 at 8:25:12 PM

Latest Report: Oct 22, 2014 at 8:00 PM


Visibility: N/A

Pressure: 30.09 "Hg

Humidity: 96%

Dew point: 49 °F

Location of Annapolis CountyLocation

Historic Weather in Annapolis County — Graph

°F

Annapolis County temperature yesterday

Maximum temperature yesterday: 57 °F (at 1:00 PM)
Minimum temperature yesterday: 33 °F (at 7:00 AM)
Average temperature yesterday: 45 °F

Past Weeks' High & Low Weather Summary

 TemperatureHumidityPressure
High72 °F (Oct 15, 1:00 PM)100% (Oct 12, 12:00 AM)30.35 "Hg (Oct 12, 12:00 AM)
Low33 °F (Oct 21, 7:00 AM)45% (Oct 9, 3:00 PM)29.51 "Hg (Oct 19, 2:00 AM)
Average53 °F88%29.98 "Hg
* Reported Oct 7 7:00 PM — Oct 22 7:00 PM, Annapolis County, Weather by CustomWeather, © 2014

Note: Actual official high and low records may vary slightly from our data, if they occured in-between our weather recording intervals... More about our weather records

Advertising

Annapolis County weather history for previous 24 hours

 ConditionsComfort  
Time TempWeatherWind HumidityBarometerVisibility
7:00 PM
Oct 22
50 °FCool.14 mph96%30.09 "HgN/A
6:00 PM50 °FCool.14 mph96%30.09 "HgN/A
5:00 PM50 °FCool.12 mph95%30.09 "HgN/A
4:00 PM51 °FCool.13 mph96%30.11 "HgN/A
3:00 PM51 °FCool.16 mph96%30.10 "HgN/A
2:00 PM50 °FCool.13 mph96%30.12 "HgN/A
1:00 PM50 °FCool.12 mph96%30.13 "HgN/A
12:00 PM49 °FCool.13 mph95%30.14 "HgN/A
11:00 AM50 °FCool.14 mph95%30.16 "HgN/A
10:00 AM50 °FCool.10 mph94%30.19 "HgN/A
9:00 AM47 °FCool.10 mph100%30.19 "HgN/A
8:00 AM50 °FCool.10 mph90%30.18 "HgN/A
7:00 AM49 °FCool.10 mph95%30.17 "HgN/A
6:00 AM50 °FCool.9 mph89%30.16 "HgN/A
5:00 AM49 °FCool.8 mph88%30.16 "HgN/A
4:00 AM50 °FCool.8 mph85%30.17 "HgN/A
3:00 AM47 °FCool.8 mph92%30.19 "HgN/A
2:00 AM49 °FCool.7 mph90%30.20 "HgN/A
1:00 AM48 °FCool.6 mph91%30.20 "HgN/A
12:00 AM48 °FCool.6 mph91%30.20 "HgN/A
11:00 PM
Oct 21
49 °FCool.6 mph91%30.19 "HgN/A
10:00 PM49 °FCool.5 mph90%30.19 "HgN/A
9:00 PM50 °FCool.6 mph88%30.19 "HgN/A
8:00 PM50 °FCool.5 mph85%30.18 "HgN/A
Weather by CustomWeather, © 2014

See weather overviewHow to use our weather pages